Location: *
(49.8044°N, 4.0558°E)
Time: 00:33:48
(UTC+00:00)

Cosmos 1606 Rocket - Pass Details

Date: 09 April 2020
Orbit: 602 x 633 km, 82.5° (Epoch: 04 June)

Event Time Altitude Azimuth Distance (km) Brightness Sun altitude
Rises 19:26:33 0° 194° (SSW) 2,898 6.9 -9.7°
Reaches altitude 10° 19:28:47 10° 197° (SSW) 2,000 6.1 -10.0°
Maximum altitude 19:33:12 71° 281° (WNW) 673 3.9 -10.6°
Drops below altitude 10° 19:37:42 10° 6° (N) 2,028 6.5 -11.3°
Sets 19:39:58 0° 9° (N) 2,943 7.3 -11.6°
